When you browse on this site, cookies collect data to enhance your experience and personalize the content and advertising you see.
Visit our Privacy Policy to learn more. By continuing to use the site, you agree to this use of cookies and data.
  • Em Portugal
  • Lista de países
  • Para 7 dias
  • Temperatura da água
  • Mapas de satélite
  • Mapa do tempo
  • Widgets de tempo
  • user-avatar
    Iniciar Sessão

    Previsão horária em Wicklow

    Hoje, 20 Novembro, Terça-feira

    Tempo Temperatura Precipitação Vento Pressão Humidade
    00:00 0°C° 0 mm 7 m/s 720 mmHg 79%
    01:00 0°C° 0 mm 7 m/s 719 mmHg 80%
    02:00 0°C° 0 mm 7 m/s 719 mmHg 81%
    03:00 0°C° 0 mm 7 m/s 719 mmHg 81%
    04:00 0°C° 0.1 mm 7 m/s 719 mmHg 82%
    05:00 -1°C° 0.1 mm 7 m/s 719 mmHg 82%
    06:00 -1°C° 0 mm 6 m/s 718 mmHg 83%
    07:00 0°C° 0.1 mm 7 m/s 718 mmHg 83%
    08:00 0°C° 0.1 mm 7 m/s 718 mmHg 83%
    09:00 0°C° 0.1 mm 8 m/s 717 mmHg 82%
    10:00 +1°C° 0.3 mm 8 m/s 717 mmHg 81%
    11:00 +1°C° 0.3 mm 8 m/s 717 mmHg 79%
    12:00 +2°C° 0.3 mm 8 m/s 716 mmHg 77%
    13:00 +1°C° 0.3 mm 8 m/s 716 mmHg 78%
    14:00 +1°C° 0.3 mm 8 m/s 715 mmHg 79%
    15:00 +1°C° 0.3 mm 8 m/s 715 mmHg 81%
    16:00 +1°C° 0.6 mm 8 m/s 714 mmHg 82%
    17:00 0°C° 0.6 mm 8 m/s 714 mmHg 84%
    18:00 0°C° 0.6 mm 8 m/s 714 mmHg 85%
    19:00 0°C° 0.5 mm 8 m/s 713 mmHg 85%
    20:00 0°C° 0.5 mm 7 m/s 713 mmHg 85%
    21:00 0°C° 0.5 mm 7 m/s 713 mmHg 85%
    22:00 -1°C° 0.2 mm 6 m/s 713 mmHg 85%
    23:00 -1°C° 0.2 mm 6 m/s 713 mmHg 86%

    Amanhã, 21 Novembro, Quarta-feira

    Tempo Temperatura Precipitação Vento Pressão Humidade
    00:00 -1°C° 0.2 mm 5 m/s 712 mmHg 86%
    01:00 -1°C° 0.1 mm 5 m/s 712 mmHg 87%
    02:00 -1°C° 0.1 mm 5 m/s 712 mmHg 88%
    03:00 -1°C° 0.1 mm 4 m/s 711 mmHg 88%
    04:00 -1°C° 0.3 mm 4 m/s 711 mmHg 89%
    05:00 0°C° 0.3 mm 3 m/s 711 mmHg 90%
    06:00 +1°C° 0.3 mm 2 m/s 710 mmHg 91%
    07:00 +1°C° 0.5 mm 2 m/s 710 mmHg 92%
    08:00 +1°C° 0.5 mm 2 m/s 711 mmHg 93%
    09:00 +1°C° 0.5 mm 2 m/s 711 mmHg 93%
    10:00 +1°C° 0.5 mm 3 m/s 711 mmHg 91%
    11:00 0°C° 0.5 mm 4 m/s 711 mmHg 89%
    12:00 +1°C° 0.5 mm 4 m/s 711 mmHg 86%
    13:00 +1°C° 0.2 mm 4 m/s 712 mmHg 86%
    14:00 +1°C° 0.2 mm 5 m/s 712 mmHg 85%
    15:00 +1°C° 0.2 mm 5 m/s 712 mmHg 85%
    16:00 0°C° 0.2 mm 4 m/s 713 mmHg 87%
    17:00 -1°C° 0.2 mm 4 m/s 713 mmHg 89%
    18:00 -2°C° 0.2 mm 4 m/s 714 mmHg 91%
    19:00 -1°C° 0.1 mm 4 m/s 714 mmHg 91%
    20:00 -1°C° 0.1 mm 5 m/s 714 mmHg 91%
    21:00 -1°C° 0.1 mm 5 m/s 715 mmHg 90%
    22:00 -1°C° 0.1 mm 6 m/s 715 mmHg 90%
    23:00 0°C° 0.1 mm 7 m/s 716 mmHg 89%

    Depois de amanhã, 22 Novembro, Quinta-feira

    Tempo Temperatura Precipitação Vento Pressão Humidade
    00:00 +1°C° 0.1 mm 8 m/s 716 mmHg 88%
    01:00 +2°C° 0.1 mm 7 m/s 716 mmHg 89%
    02:00 +2°C° 0.1 mm 7 m/s 717 mmHg 89%
    03:00 +2°C° 0.1 mm 6 m/s 717 mmHg 90%
    04:00 +1°C° 0 mm 6 m/s 717 mmHg 90%
    05:00 -1°C° 0 mm 6 m/s 717 mmHg 90%
    06:00 -1°C° 0 mm 6 m/s 717 mmHg 90%
    07:00 -1°C° 0 mm 6 m/s 717 mmHg 90%
    08:00 -2°C° 0 mm 6 m/s 717 mmHg 90%
    09:00 -2°C° 0 mm 6 m/s 717 mmHg 89%
    10:00 -1°C° 0 mm 6 m/s 717 mmHg 86%
    11:00 +1°C° 0 mm 6 m/s 717 mmHg 82%
    12:00 +1°C° 0 mm 6 m/s 717 mmHg 79%
    13:00 +1°C° 0 mm 6 m/s 717 mmHg 79%
    14:00 +1°C° 0 mm 5 m/s 717 mmHg 79%
    15:00 +1°C° 0 mm 5 m/s 717 mmHg 79%
    16:00 0°C° 0 mm 5 m/s 716 mmHg 82%
    17:00 -1°C° 0 mm 5 m/s 716 mmHg 84%
    18:00 -2°C° 0 mm 5 m/s 716 mmHg 87%
    19:00 -1°C° 0 mm 5 m/s 716 mmHg 88%
    20:00 -1°C° 0 mm 5 m/s 716 mmHg 88%
    21:00 -1°C° 0 mm 5 m/s 716 mmHg 89%
    22:00 0°C° 0 mm 5 m/s 716 mmHg 90%
    23:00 0°C° 0 mm 5 m/s 716 mmHg 91%

    23 Novembro, Sexta-feira

    Tempo Temperatura Precipitação Vento Pressão Humidade
    00:00 0°C° 0 mm 5 m/s 716 mmHg 91%
    01:00 +1°C° 0 mm 5 m/s 716 mmHg 92%
    02:00 +1°C° 0 mm 5 m/s 716 mmHg 92%
    03:00 +1°C° 0 mm 5 m/s 716 mmHg 93%
    04:00 +1°C° 0 mm 5 m/s 716 mmHg 93%
    05:00 +2°C° 0 mm 5 m/s 716 mmHg 93%
    06:00 +2°C° 0 mm 5 m/s 716 mmHg 93%
    07:00 +2°C° 0.1 mm 5 m/s 716 mmHg 93%
    08:00 +2°C° 0.1 mm 5 m/s 716 mmHg 93%
    09:00 +2°C° 0.1 mm 5 m/s 716 mmHg 93%
    10:00 +3°C° 0.1 mm 5 m/s 716 mmHg 92%
    11:00 +3°C° 0.1 mm 5 m/s 716 mmHg 91%
    12:00 +5°C° 0.1 mm 5 m/s 716 mmHg 89%
    13:00 +5°C° 0.1 mm 4 m/s 716 mmHg 90%
    14:00 +5°C° 0.1 mm 4 m/s 716 mmHg 91%
    15:00 +5°C° 0.1 mm 4 m/s 716 mmHg 91%
    16:00 +4°C° 0 mm 4 m/s 716 mmHg 93%
    17:00 +4°C° 0 mm 4 m/s 716 mmHg 94%
    18:00 +3°C° 0 mm 4 m/s 716 mmHg 95%
    19:00 +3°C° 0 mm 4 m/s 716 mmHg 95%
    20:00 +3°C° 0 mm 4 m/s 716 mmHg 95%
    21:00 +3°C° 0 mm 4 m/s 716 mmHg 95%
    22:00 +3°C° 0 mm 3 m/s 716 mmHg 95%
    23:00 +3°C° 0 mm 3 m/s 716 mmHg 95%

    24 Novembro, Sábado

    Tempo Temperatura Precipitação Vento Pressão Humidade
    00:00 +2°C° 0 mm 3 m/s 716 mmHg 95%
    01:00 +2°C° 0 mm 3 m/s 716 mmHg 95%
    02:00 +2°C° 0 mm 3 m/s 716 mmHg 96%
    03:00 +2°C° 0 mm 3 m/s 716 mmHg 96%
    04:00 +2°C° 0 mm 3 m/s 717 mmHg 95%
    05:00 +2°C° 0 mm 3 m/s 717 mmHg 95%
    06:00 +2°C° 0 mm 3 m/s 717 mmHg 95%
    07:00 +2°C° 0 mm 3 m/s 717 mmHg 95%
    08:00 +2°C° 0 mm 3 m/s 718 mmHg 94%
    09:00 +2°C° 0 mm 3 m/s 718 mmHg 94%
    10:00 +3°C° 0 mm 3 m/s 718 mmHg 91%
    11:00 +4°C° 0 mm 3 m/s 718 mmHg 87%
    12:00 +5°C° 0 mm 3 m/s 718 mmHg 84%
    13:00 +4°C° 0 mm 3 m/s 718 mmHg 84%
    14:00 +4°C° 0 mm 3 m/s 718 mmHg 85%
    15:00 +5°C° 0 mm 2 m/s 718 mmHg 85%
    16:00 +3°C° 0 mm 3 m/s 718 mmHg 88%
    17:00 +3°C° 0 mm 3 m/s 719 mmHg 90%
    18:00 +2°C° 0 mm 3 m/s 719 mmHg 92%
    19:00 +2°C° 0 mm 3 m/s 719 mmHg 93%
    20:00 +1°C° 0 mm 3 m/s 719 mmHg 93%
    21:00 +1°C° 0 mm 3 m/s 719 mmHg 94%
    22:00 +2°C° 0.1 mm 2 m/s 719 mmHg 94%
    23:00 +2°C° 0.1 mm 2 m/s 719 mmHg 94%

    25 Novembro, Domingo

    Tempo Temperatura Precipitação Vento Pressão Humidade
    00:00 +2°C° 0.1 mm 2 m/s 719 mmHg 94%
    01:00 +2°C° 0.1 mm 2 m/s 719 mmHg 94%
    02:00 +2°C° 0.1 mm 2 m/s 719 mmHg 94%
    03:00 +2°C° 0.1 mm 2 m/s 719 mmHg 94%
    04:00 +2°C° 0 mm 2 m/s 719 mmHg 94%
    05:00 +1°C° 0 mm 2 m/s 719 mmHg 94%
    06:00 +1°C° 0 mm 2 m/s 719 mmHg 95%
    07:00 +1°C° 0 mm 2 m/s 719 mmHg 94%
    08:00 +2°C° 0 mm 2 m/s 719 mmHg 94%
    09:00 +2°C° 0 mm 2 m/s 720 mmHg 94%
    10:00 +3°C° 0 mm 2 m/s 720 mmHg 90%
    11:00 +4°C° 0 mm 2 m/s 720 mmHg 87%
    12:00 +4°C° 0 mm 3 m/s 720 mmHg 83%
    13:00 +4°C° 0 mm 3 m/s 720 mmHg 85%
    14:00 +4°C° 0 mm 3 m/s 719 mmHg 86%
    15:00 +4°C° 0 mm 3 m/s 719 mmHg 87%
    16:00 +3°C° 0.1 mm 3 m/s 719 mmHg 89%
    17:00 +2°C° 0.1 mm 3 m/s 719 mmHg 91%
    18:00 +1°C° 0.1 mm 4 m/s 719 mmHg 93%
    19:00 +1°C° 0.2 mm 4 m/s 719 mmHg 93%
    20:00 +1°C° 0.2 mm 4 m/s 719 mmHg 93%
    21:00 +1°C° 0.2 mm 5 m/s 719 mmHg 93%
    22:00 +1°C° 0.1 mm 5 m/s 719 mmHg 93%
    23:00 +1°C° 0.1 mm 5 m/s 719 mmHg 93%
    Mostrar mais